Theta_e
300 301 302 302 301 302 303 304 308 307 312 316 312 309 308 311 310 311 312 312 313 314 316 315 317 321 328 331 330 330 328 326
300 301 300 301 301 300 301 301 303 302 303 306 305 303 303 303 304 306 308 309 309 310 310 312 313 316 316 317 320 325 328 325
300 300 300 299 299 300 300 299 301 301 299 301 303 302 301 301 302 302 303 305 305 306 306 308 309 310 312 313 314 315 320 324
299 298 296 297 297 298 299 299 299 299 298 298 298 298 298 298 299 299 300 302 302 301 303 304 305 307 307 309 309 312 313 317
298 296 295 295 295 297 298 299 299 299 298 297 295 295 294 296 297 297 298 300 300 300 301 302 302 303 302 305 309 307 310 309
296 296 296 295 296 295 296 298 298 298 297 296 295 294 294 295 296 296 297 298 299 300 300 300 300 301 301 302 301 304 309 308
297 297 297 295 295 294 295 297 297 297 297 296 295 293 293 294 294 295 296 297 297 298 299 298 299 299 299 300 300 301 301 306
296 295 295 294 294 294 295 295 296 296 296 296 295 295 294 294 294 294 295 295 296 297 297 297 298 298 299 299 299 298 299 300
295 294 294 294 294 295 295 295 295 296 295 295 295 295 294 294 294 294 294 295 295 296 297 297 298 298 298 298 298 297 298 299
294 294 294 294 293 294 294 294 294 294 295 294 294 294 293 293 293 293 294 294 296 296 296 296 296 297 297 297 297 296 297 299
295 295 295 295 294 294 294 293 293 293 293 294 293 293 293 292 293 292 293 294 294 295 294 295 295 295 295 295 294 296 296 297
295 295 295 294 293 292 292 292 292 292 292 293 292 292 292 291 292 292 292 293 293 293 293 292 292 292 293 292 293 293 292 292
295 295 293 292 292 291 291 291 291 291 292 292 291 291 291 290 291 291 292 292 292 292 292 291 291 291 292 292 292 292 292 291
294 293 292 292 291 291 291 291 291 291 291 291 290 290 290 289 290 291 291 290 290 290 290 290 290 291 291 293 292 291 290 290
293 292 291 291 292 291 291 291 291 291 291 290 290 289 290 290 290 290 289 290 289 289 290 290 290 290 292 292 291 289 289 289
293 292 291 291 291 291 291 291 291 291 291 290 290 290 290 290 289 289 289 289 289 289 289 290 290 290 291 290 289 288 287 288
293 292 291 291 291 290 291 291 291 291 290 290 291 291 290 289 288 288 288 287 287 288 289 290 288 289 290 290 289 288 288 288
292 292 291 291 290 291 290 290 291 291 291 291 291 290 289 288 288 287 286 286 286 287 288 289 288 289 289 289 288 287 287 287
292 291 290 291 290 289 290 291 290 290 290 290 290 289 288 287 286 286 285 285 285 286 286 287 287 288 289 288 288 287 287 287
Wind_Speed
9 10 10 11 12 13 15 12 11 10 9 8 8 8 8 7 9 9 13 11 14 12 10 11 11 9 9 8 6 4 6 7
8 9 9 11 12 14 16 15 15 8 5 2 5 8 9 9 9 14 14 13 14 12 9 10 11 10 10 10 9 10 7 3
9 9 9 9 8 11 12 13 15 10 7 5 4 3 6 7 8 10 13 13 14 13 11 10 12 10 11 11 12 7 5 11
8 9 7 7 8 8 9 8 10 9 9 5 3 4 4 8 9 8 9 11 11 12 12 11 11 9 9 11 11 11 8 7
7 8 7 7 6 6 6 7 9 9 8 11 13 9 8 5 4 5 6 8 9 11 10 9 8 7 10 9 9 10 8 9
8 8 7 6 6 7 6 7 8 8 9 9 8 8 3 2 3 6 6 6 6 8 8 8 8 7 8 10 11 10 8 5
8 6 6 6 5 6 6 7 7 7 7 7 8 7 6 6 6 6 6 4 5 7 8 7 6 7 8 8 9 10 9 9
11 9 7 7 7 5 5 7 6 6 7 7 7 7 7 6 6 5 7 6 6 8 6 7 6 6 6 7 7 10 10 10
11 9 8 7 7 6 6 6 5 5 6 6 5 6 4 3 4 3 4 4 4 6 7 5 6 6 6 5 4 7 10 7
11 8 8 7 7 7 7 7 6 6 5 5 6 6 6 5 6 5 4 5 7 8 7 7 7 8 8 6 4 8 8 9
9 8 8 6 7 6 6 6 7 5 6 5 4 5 6 6 6 7 6 6 7 8 9 9 9 10 10 9 8 9 12 10
12 10 7 8 7 6 6 6 7 6 6 5 6 6 6 6 5 6 6 6 7 9 9 10 10 10 10 9 12 11 11 11
12 12 10 8 8 7 7 6 7 6 6 6 6 6 6 6 6 6 6 8 7 9 9 10 10 10 9 11 14 13 14 13
12 11 11 10 7 7 6 6 6 6 6 6 6 6 6 6 6 6 7 8 8 9 9 10 11 11 10 13 13 13 13 14
15 11 10 9 8 7 6 6 6 6 6 6 6 6 6 6 6 6 7 7 8 9 9 9 10 11 9 14 14 14 14 14
16 14 11 8 8 7 6 6 6 6 6 6 5 6 6 6 6 6 7 8 9 9 10 10 11 11 11 15 15 15 16 16
17 15 13 11 10 8 7 7 7 6 6 6 6 6 6 6 6 6 7 8 9 8 12 13 13 9 17 22 19 15 15 15
18 17 14 12 10 9 8 8 6 6 6 6 6 6 5 5 5 6 8 7 7 7 9 9 12 11 18 21 24 13 15 15
18 14 12 11 8 7 8 8 7 7 6 6 6 5 5 5 5 6 6 5 6 5 9 8 10 10 19 24 25 16 13 15
Wind_Direction
66 52 46 42 39 40 44 42 24 35 28 64 57 62 51 56 44 27 31 26 23 15 9 8 3 5 2 348 294 263 253 270
72 61 50 50 44 44 41 41 33 13 40 30 56 48 50 41 35 30 34 26 22 30 12 9 14 3 7 2 338 349 312 275
83 75 68 53 48 47 46 44 43 31 37 28 28 21 46 39 31 29 26 27 24 22 14 11 13 12 6 6 9 342 325 349
109 90 82 77 62 55 57 55 53 49 50 52 54 52 52 36 29 26 20 24 24 20 15 14 9 6 358 2 0 348 346 331
120 109 89 89 82 75 75 63 59 54 49 58 58 59 53 20 5 11 16 19 21 22 17 12 8 2 0 356 351 351 356 350
130 117 110 98 87 72 67 64 60 53 54 60 62 61 53 10 6 21 18 13 12 16 14 5 9 5 353 352 349 349 335 343
135 125 122 107 92 76 66 72 56 56 59 58 66 64 46 38 24 24 15 9 6 4 3 359 352 355 357 352 345 338 344 327
151 146 140 131 125 115 95 80 65 60 63 54 51 50 42 35 18 7 5 3 4 354 349 344 341 336 335 343 342 340 338 328
157 153 147 137 133 129 107 93 86 73 64 57 49 46 43 33 20 354 352 355 330 341 341 324 318 315 316 325 318 333 336 319
158 153 150 144 141 145 132 108 88 77 79 66 47 38 39 28 16 12 359 350 355 354 346 338 339 343 340 330 318 334 328 339
154 152 155 155 143 134 125 104 94 89 74 73 64 49 38 27 18 11 0 346 346 351 354 351 354 357 351 350 347 334 350 343
161 162 156 145 138 142 138 118 110 98 86 93 64 39 31 23 16 358 357 344 353 1 357 357 356 353 352 352 359 347 339 326
160 159 148 147 149 148 148 142 114 111 108 84 67 47 33 22 9 4 359 2 0 356 356 357 353 347 342 358 351 343 337 329
153 150 157 156 157 158 149 130 112 110 97 85 60 42 34 23 18 12 9 1 357 354 356 354 351 345 338 1 350 342 334 325
160 155 160 162 160 149 142 124 120 116 101 84 68 48 40 32 20 16 6 356 358 355 355 350 349 341 347 358 347 339 330 322
162 161 166 160 145 140 135 125 127 124 103 87 75 58 51 36 19 10 0 359 356 351 351 358 0 347 10 355 347 340 329 325
163 162 163 156 151 152 144 138 133 120 105 90 74 61 55 28 10 3 3 357 355 351 9 3 1 349 2 351 347 336 330 327
163 167 164 157 157 154 146 144 136 114 103 88 73 73 51 27 1 2 357 350 339 355 356 1 356 352 354 350 345 334 335 331
163 161 152 151 151 140 136 136 124 114 101 90 82 75 53 22 5 357 344 339 332 354 352 354 353 346 350 355 346 343 337 332